STARLINK-34460, 66099

Orbit data source: Space-Track

STARLINK-34460, 66099 is a payload satellite owned by SpaceX/Seattle (US) in LEO that was launched on Sun, 19 Oct 2025 UTC via an FALCON 9 launch vehicle from the Air Force Western Test Range (AFWTR). Payload-class satellites include a variety of spacecraft equipped with specific instruments for various scientific and technological missions. These include communications satellites like Starlink; space stations such as the ISS; scientific satellites like the Hubble; Earth observation satellites from companies like Planet Labs, Umbra, and HawkEye 360; GPS; miniature CubeSats for education and research; and military/defense satellites.

Loading next visibility...
Identifier
66099, 2025-236P
Orbit
LEO
Country
Flag of USUS
Related business
Manufacturer
SpaceX/Seattle
Mission
Operational Commercial Communications
Bus & Motor
STARLINK V2MO, Unknown motor
Mass
575 kg wet, ~530 kg dry
Launch date (UTC)
2025-10-19 (6 months ago)
Launch vehicle
FALCON 9
Launch site
Air Force Western Test Range (AFWTR)
Object type
Payload
Rocket body
Debris
Shape & HBR
Box + 2 Pan, 17.7 m
Radar Cross Section
36.964 m²

Expand to show TLE details & history
Last TLE update: 11 hours ago

TLE from 11 hours ago
0 STARLINK-34460
1 66099U 25236P   26095.36821548  .00026179  00000-0  89388-3 0  9991
2 66099  53.1591 339.6348 0000907  95.4281 264.6823 15.30164288 27038
Epoch: 2026-04-05T08:50Z
TLE epoch observation values (Epoch: 2026-04-05T08:50:13.817Z)
Latitude
-0.00004°
Longitude
13.40256°
Altitude
476.279 km
Speed
7.629 km/s
True Right ascension
22h 38m 32s
True Declination
0° 00' 00"
Sunlit
Object was in daylight at epoch
Visualization orbit readout
Latitude
Unknown
Longitude
Unknown
Altitude
Unknown
Speed
Unknown
Apparent Right ascension
Unknown
Apparent Declination
Unknown
Sunlit
N/A
Visualization observer readout
Local Sidereal Time
02:08:06
Azimuth
Unknown
Elevation
Unknown
Doppler factor
Unknown
Orbital elements
Apogee altitude
476.2 km
Perigee altitude
474.957 km
Semi-major axis
6,853.715 km
Eccentricity
0.00009
Inclination
53.1591°
RAAN
339.6348°
Arg. of periapsis
95.4281°
True anomaly
264.67195°
Mean anomaly
264.6823°
Eccentric anomaly
264.67713°
Mean motion
3.8252 °/min
Orbital period
94.11 mins
BSTAR
0.00089388
Loading maneuver chart data...
Computing Atmospheric mass density...
Loading historical data...
Loading historical data...
Loading historical data...
Loading historical data...
Loading historical data...
Loading historical data...
Loading historical data...

Documentation

Showing up to 5 results
|